FW1417 Weather Reports


Display with metric or nautical units.
time (UTC)temp
F
wind
direction
speed
MPH
gust
MPH
rain 1hr
in
rain 24hr
in
rain mn
in
humidity
%
barometer
mb
20200808113719 72 26 0.0 0.0 0.00 0.23 0.00 87 1023.4
20200808113219 72 26 0.0 0.0 0.00 0.24 0.00 87 1023.5
20200808112719 72 26 0.0 0.0 0.00 0.24 0.00 87 1023.5
20200808112219 72 26 0.0 0.0 0.00 0.24 0.00 87 1023.5
20200808111722 72 26 0.0 0.0 0.00 0.24 0.00 86 1023.5
20200808111219 72 26 0.0 0.0 0.00 0.24 0.00 86 1023.5
20200808110720 72 26 0.0 2.0 0.00 0.24 0.00 86 1023.5
20200808110219 72 26 0.0 2.0 0.00 0.24 0.00 86 1023.5
20200808105719 72 26 0.0 2.0 0.00 0.24 0.00 86 1023.4
20200808105218 72 26 0.0 2.0 0.00 0.24 0.00 86 1023.4
20200808104719 72 26 0.0 3.0 0.00 0.24 0.00 86 1023.3
20200808104219 72 26 1.0 3.0 0.00 0.24 0.00 86 1023.2
20200808103718 72 26 1.0 3.0 0.00 0.25 0.00 86 1023.2
20200808103219 72 26 0.0 3.0 0.00 0.26 0.00 86 1023.1
20200808102718 72 26 0.0 2.0 0.00 0.26 0.00 85 1023.0
20200808102218 72 26 0.0 0.0 0.00 0.26 0.00 85 1023.0
20200808101719 72 26 0.0 0.0 0.00 0.27 0.00 85 1023.0
20200808101218 72 26 0.0 0.0 0.00 0.27 0.00 85 1022.9
20200808100718 72 26 0.0 0.0 0.00 0.27 0.00 86 1022.9
20200808100219 72 26 0.0 0.0 0.00 0.27 0.00 86 1022.7
20200808095719 72 26 0.0 3.0 0.00 0.27 0.00 85 1022.7
20200808095218 72 26 1.0 3.0 0.00 0.27 0.00 86 1022.6
20200808094719 72 26 0.0 3.0 0.00 0.27 0.00 85 1022.6
20200808094219 72 26 0.0 2.0 0.00 0.27 0.00 85 1022.5
20200808093720 72 26 0.0 3.0 0.00 0.27 0.00 85 1022.5
20200808093219 72 26 1.0 3.0 0.00 0.27 0.00 85 1022.5
20200808092719 72 26 1.0 3.0 0.00 0.28 0.00 85 1022.4
20200808092218 72 26 1.0 2.0 0.00 0.28 0.00 85 1022.4
20200808091719 72 26 0.0 2.0 0.00 0.29 0.00 85 1022.4
20200808091219 72 26 0.0 2.0 0.00 0.29 0.00 85 1022.2
20200808090719 72 26 0.0 0.0 0.00 0.29 0.00 84 1022.2
20200808090219 72 26 0.0 0.0 0.00 0.29 0.00 84 1022.1
20200808085718 72 26 0.0 0.0 0.00 0.29 0.00 84 1022.0
20200808085218 72 26 0.0 0.0 0.00 0.29 0.00 84 1022.0
20200808084719 72 26 0.0 0.0 0.00 0.29 0.00 84 1022.0
20200808084219 72 26 0.0 0.0 0.00 0.29 0.00 84 1021.9
20200808083718 72 26 0.0 0.0 0.00 0.29 0.00 84 1022.0
20200808083219 72 26 0.0 3.0 0.00 0.29 0.00 84 1022.1
20200808082718 72 26 1.0 3.0 0.00 0.29 0.00 84 1022.1
20200808082219 72 26 1.0 3.0 0.00 0.29 0.00 84 1022.4
20200808081718 72 26 0.0 5.0 0.00 0.29 0.00 84 1022.5
20200808081218 72 26 2.0 5.0 0.00 0.29 0.00 84 1022.5
20200808080719 72 26 1.0 3.0 0.00 0.29 0.00 85 1022.4
20200808080218 72 26 3.0 5.0 0.00 0.29 0.00 85 1022.4
20200808075719 72 26 2.0 5.0 0.00 0.29 0.00 85 1022.4
20200808075219 72 27 3.0 5.0 0.00 0.29 0.00 86 1022.3
20200808074718 72 27 2.0 5.0 0.00 0.29 0.00 86 1022.4
20200808074219 72 30 2.0 6.0 0.00 0.29 0.00 86 1022.4
20200808073719 72 30 3.0 6.0 0.00 0.29 0.00 86 1022.4
20200808073218 72 32 1.0 5.0 0.00 0.29 0.00 86 1022.4
20200808072718 72 32 3.0 5.0 0.00 0.29 0.00 86 1022.5
20200808072219 72 30 3.0 6.0 0.00 0.29 0.00 86 1022.4
20200808071718 71 32 3.0 8.0 0.00 0.29 0.00 86 1022.4
20200808071218 71 30 4.0 8.0 0.00 0.29 0.00 86 1022.4
20200808070718 71 46 2.0 6.0 0.00 0.29 0.00 87 1022.5
20200808070219 71 59 2.0 8.0 0.00 0.29 0.00 87 1022.5
20200808065719 71 61 3.0 8.0 0.00 0.29 0.00 87 1022.5
20200808065218 71 19 3.0 7.0 0.00 0.29 0.00 87 1022.6
20200808064719 71 16 3.0 8.0 0.00 0.29 0.00 87 1022.6
20200808064218 71 0 3.0 8.0 0.00 0.29 0.00 87 1022.6
20200808063718 71 14 3.0 8.0 0.00 0.29 0.00 87 1022.7
20200808063219 71 0 1.0 9.0 0.00 0.29 0.00 87 1022.6
20200808062719 72 342 4.0 9.0 0.00 0.29 0.00 87 1022.6
20200808062219 72 355 3.0 9.0 0.00 0.29 0.00 87 1022.6
20200808061719 72 23 3.0 9.0 0.00 0.29 0.00 87 1022.5
20200808061220 72 347 3.0 7.0 0.00 0.29 0.00 87 1022.5
20200808060719 72 13 1.0 7.0 0.00 0.29 0.00 87 1022.5
20200808060218 72 20 1.0 5.0 0.00 0.29 0.00 87 1022.5
20200808055718 73 27 1.0 3.0 0.00 0.29 0.00 87 1022.4
20200808055218 73 27 2.0 3.0 0.00 0.29 0.00 86 1022.2
20200808054718 73 27 2.0 3.0 0.00 0.29 0.00 86 1022.1
20200808054218 73 27 2.0 5.0 0.00 0.29 0.00 86 1022.2
20200808053718 73 28 3.0 5.0 0.00 0.29 0.00 86 1022.2
20200808053219 73 28 2.0 3.0 0.00 0.29 0.00 85 1022.3
20200808052718 73 28 2.0 3.0 0.00 0.29 0.00 85 1022.3
20200808052218 73 28 0.0 0.0 0.00 0.29 0.00 85 1022.3
20200808051719 73 28 0.0 0.0 0.00 0.29 0.00 84 1022.3
20200808051218 73 28 0.0 0.0 0.00 0.29 0.00 84 1022.3
20200808050718 73 28 0.0 0.0 0.00 0.29 0.00 84 1022.2
20200808050218 73 28 0.0 0.0 0.00 0.29 0.00 83 1022.2
20200808045718 73 28 0.0 0.0 0.00 0.29 0.00 84 1022.2
20200808045218 73 28 0.0 0.0 0.00 0.29 0.00 84 1022.2
20200808044718 73 28 0.0 0.0 0.00 0.29 0.00 84 1022.2
20200808044218 73 28 0.0 1.0 0.00 0.29 0.00 85 1022.2
20200808043719 73 28 0.0 1.0 0.00 0.29 0.00 85 1022.2
20200808043219 73 28 0.0 0.0 0.00 0.29 0.00 85 1022.2
20200808042719 73 28 0.0 0.0 0.00 0.29 0.00 85 1022.2
20200808042218 73 28 0.0 1.0 0.00 0.29 0.00 85 1022.2
20200808041718 73 28 0.0 3.0 0.00 0.29 0.00 85 1022.1
20200808041218 73 28 0.0 3.0 0.00 0.29 0.00 85 1022.1
20200808040719 73 28 0.0 3.0 0.00 0.29 0.00 85 1022.1
20200808040220 73 28 1.0 3.0 0.00 0.29 0.00 86 1022.1
20200808035218 73 37 0.0 2.0 0.00 0.29 0.29 86 1021.8
20200808034718 73 36 0.0 3.0 0.00 0.29 0.29 86 1021.7
20200808034218 73 37 1.0 3.0 0.00 0.29 0.29 86 1021.7
20200808033718 73 36 0.0 5.0 0.00 0.29 0.29 86 1021.6
20200808033218 73 37 2.0 5.0 0.00 0.29 0.29 86 1021.7
20200808032718 73 45 2.0 3.0 0.00 0.29 0.29 86 1021.6
20200808032219 73 39 1.0 3.0 0.00 0.29 0.29 87 1021.7
20200808031718 73 39 0.0 3.0 0.00 0.29 0.29 87 1021.7
20200808031218 73 39 1.0 3.0 0.00 0.29 0.29 87 1021.7
20200808030718 73 30 1.0 3.0 0.00 0.29 0.29 88 1021.6
20200808030217 73 30 0.0 3.0 0.00 0.29 0.29 88 1021.6
20200808025718 73 30 1.0 8.0 0.00 0.29 0.29 88 1021.6
20200808025218 73 30 3.0 8.0 0.00 0.29 0.29 88 1021.4
20200808024718 72 17 3.0 8.0 0.01 0.29 0.29 88 1021.5
20200808024218 72 24 4.0 9.0 0.01 0.29 0.29 88 1021.5
20200808023718 72 22 3.0 9.0 0.01 0.29 0.29 88 1021.6
20200808023218 73 14 2.0 7.0 0.01 0.29 0.29 88 1021.6
20200808022718 73 5 3.0 8.0 0.01 0.29 0.29 88 1021.5
20200808022219 73 0 3.0 8.0 0.01 0.29 0.29 88 1021.5
20200808021718 73 331 2.0 6.0 0.01 0.29 0.29 88 1021.6
20200808021218 73 331 1.0 6.0 0.01 0.29 0.29 88 1021.6
20200808020718 73 312 2.0 5.0 0.02 0.29 0.29 88 1021.6
20200808020218 73 17 2.0 7.0 0.02 0.29 0.29 88 1021.5
20200808015718 73 24 4.0 7.0 0.03 0.29 0.29 88 1021.3
20200808015218 73 15 3.0 7.0 0.03 0.29 0.29 88 1021.3
20200808014718 73 17 2.0 5.0 0.03 0.28 0.28 88 1021.5
20200808014218 73 311 1.0 3.0 0.03 0.28 0.28 88 1021.6
20200808013718 73 301 0.0 0.0 0.04 0.28 0.28 88 1021.6
20200808013218 73 301 0.0 0.0 0.06 0.28 0.28 87 1021.7
20200808012719 73 307 0.0 3.0 0.07 0.28 0.28 87 1021.9
20200808012218 73 307 1.0 3.0 0.08 0.28 0.28 87 1021.9
20200808011718 73 289 0.0 3.0 0.08 0.28 0.28 87 1021.9
20200808011218 73 289 1.0 5.0 0.09 0.28 0.28 86 1021.8
20200808010718 73 282 1.0 5.0 0.10 0.27 0.27 86 1021.8
20200808010218 73 23 1.0 5.0 0.11 0.27 0.27 86 1021.6
20200808005718 73 100 1.0 9.0 0.11 0.26 0.26 85 1021.4
20200808005219 74 183 2.0 13.0 0.12 0.26 0.26 85 1021.5
20200808004718 74 178 4.0 13.0 0.12 0.25 0.25 84 1021.4
20200808004218 74 152 6.0 10.0 0.12 0.25 0.25 84 1021.2
20200808003717 74 178 6.0 10.0 0.12 0.24 0.24 84 1021.2
20200808003218 74 169 5.0 10.0 0.11 0.22 0.22 82 1021.7
20200808002718 74 150 2.0 7.0 0.10 0.21 0.21 81 1022.0
20200808002218 74 178 0.0 8.0 0.10 0.20 0.20 80 1022.3
20200808001718 75 178 2.0 8.0 0.10 0.20 0.20 79 1022.2
20200808001219 75 167 5.0 7.0 0.09 0.19 0.19 78 1022.1
20200808000718 76 126 1.0 5.0 0.07 0.17 0.17 78 1022.2
20200808000218 76 71 2.0 3.0 0.06 0.16 0.16 77 1022.3
20200807235718 76 29 1.0 3.0 0.05 0.15 0.15 76 1022.2
20200807235218 76 30 0.0 0.0 0.04 0.14 0.14 76 1022.1
20200807234718 77 29 0.0 0.0 0.03 0.13 0.13 75 1022.1
20200807234218 77 29 0.0 2.0 0.03 0.13 0.13 73 1022.2
20200807233717 77 29 0.0 2.0 0.02 0.12 0.12 73 1022.2
20200807233218 77 29 0.0 3.0 0.01 0.11 0.11 73 1022.0
20200807232717 77 29 1.0 3.0 0.01 0.11 0.11 72 1021.9
20200807232217 77 29 1.0 3.0 0.00 0.10 0.10 72 1021.9
20200807231718 77 29 1.0 2.0 0.00 0.10 0.10 71 1021.9
20200807231217 78 29 1.0 3.0 0.00 0.10 0.10 71 1021.8
20200807230718 78 29 2.0 3.0 0.00 0.10 0.10 69 1021.7
20200807230218 78 29 0.0 3.0 0.00 0.10 0.10 69 1021.7
20200807225718 78 29 2.0 5.0 0.00 0.10 0.10 68 1021.6
20200807225218 78 30 2.0 5.0 0.00 0.10 0.10 68 1021.5
20200807224718 78 30 3.0 6.0 0.00 0.10 0.10 68 1021.5
20200807224218 78 24 3.0 6.0 0.00 0.10 0.10 68 1021.5
20200807223718 78 29 3.0 8.0 0.00 0.10 0.10 67 1021.5
20200807223217 78 34 3.0 9.0 0.00 0.10 0.10 67 1021.4
20200807222718 78 25 5.0 9.0 0.00 0.10 0.10 67 1021.3
20200807222218 78 29 3.0 9.0 0.00 0.10 0.10 66 1021.2
20200807221719 78 43 3.0 10.0 0.00 0.10 0.10 67 1021.3
20200807221218 79 13 5.0 10.0 0.00 0.10 0.10 66 1021.3
20200807220718 79 21 5.0 8.0 0.00 0.10 0.10 66 1021.3
20200807220217 79 22 3.0 7.0 0.00 0.10 0.10 65 1021.2
20200807215717 79 34 3.0 6.0 0.00 0.10 0.10 65 1021.3
20200807215217 79 24 3.0 8.0 0.00 0.10 0.10 65 1021.4
20200807214718 79 24 3.0 8.0 0.00 0.10 0.10 65 1021.5
20200807214219 80 30 2.0 6.0 0.00 0.10 0.10 64 1021.4
20200807213718 80 31 3.0 6.0 0.00 0.10 0.10 64 1021.2
20200807213218 80 33 3.0 5.0 0.00 0.10 0.10 63 1021.2
20200807212717 81 26 3.0 6.0 0.00 0.10 0.10 62 1021.2
20200807212218 81 25 3.0 6.0 0.00 0.10 0.10 61 1021.0
20200807211717 81 40 1.0 3.0 0.00 0.10 0.10 59 1020.9
20200807211217 81 35 1.0 3.0 0.00 0.10 0.10 60 1021.1
20200807210719 81 35 1.0 3.0 0.00 0.10 0.10 60 1021.3
20200807210217 81 35 2.0 5.0 0.00 0.10 0.10 61 1021.3
20200807205717 81 34 3.0 5.0 0.00 0.10 0.10 61 1021.2
20200807205218 81 74 2.0 5.0 0.00 0.10 0.10 62 1021.2
20200807204718 80 57 2.0 3.0 0.00 0.10 0.10 62 1021.3
20200807204218 80 63 0.0 3.0 0.00 0.10 0.10 63 1021.3
20200807203718 80 67 0.0 5.0 0.00 0.10 0.10 63 1021.2
20200807203217 80 68 2.0 5.0 0.00 0.10 0.10 63 1021.4
20200807202718 80 71 2.0 5.0 0.00 0.10 0.10 65 1021.4
20200807202217 80 67 0.0 3.0 0.00 0.10 0.10 66 1021.4
20200807201718 79 67 1.0 3.0 0.00 0.10 0.10 66 1021.6
20200807201217 79 67 2.0 3.0 0.00 0.10 0.10 66 1021.6
20200807200718 79 67 0.0 3.0 0.00 0.10 0.10 67 1021.7
20200807200217 79 67 2.0 3.0 0.00 0.10 0.10 68 1021.7
20200807195717 78 62 2.0 3.0 0.00 0.10 0.10 69 1021.8
20200807195218 78 44 0.0 3.0 0.00 0.10 0.10 69 1021.8
20200807194717 78 44 1.0 3.0 0.00 0.10 0.10 69 1021.9
20200807194217 78 44 1.0 5.0 0.00 0.10 0.10 70 1022.0
20200807193717 78 44 2.0 5.0 0.00 0.10 0.10 70 1022.0
20200807193218 78 44 1.0 3.0 0.00 0.10 0.10 70 1022.1
20200807192718 78 34 0.0 6.0 0.00 0.10 0.10 70 1022.0
20200807192217 78 34 0.0 6.0 0.00 0.10 0.10 69 1022.1
20200807191718 78 34 3.0 6.0 0.00 0.10 0.10 69 1022.0
20200807191217 78 45 0.0 5.0 0.00 0.10 0.10 69 1022.1
20200807190718 78 45 1.0 5.0 0.00 0.10 0.10 69 1022.0
20200807190217 79 36 0.0 5.0 0.00 0.10 0.10 69 1022.0
20200807185717 79 35 0.0 0.0 0.00 0.10 0.10 69 1022.2
20200807185217 79 32 0.0 0.0 0.00 0.10 0.10 69 1022.1
20200807184717 78 32 0.0 3.0 0.00 0.10 0.10 68 1022.1
20200807184218 78 30 1.0 3.0 0.00 0.10 0.10 69 1022.2
20200807183717 78 30 2.0 5.0 0.00 0.10 0.10 68 1022.2
20200807183217 78 29 2.0 9.0 0.00 0.10 0.10 68 1022.2
20200807182717 78 28 5.0 9.0 0.00 0.10 0.10 68 1022.2
20200807182218 78 32 4.0 9.0 0.00 0.10 0.10 67 1022.2
20200807181719 79 26 5.0 9.0 0.00 0.10 0.10 66 1022.2
20200807181217 79 22 3.0 8.0 0.00 0.10 0.10 66 1022.2
20200807180718 79 355 2.0 6.0 0.00 0.10 0.10 66 1022.1
20200807180217 79 46 3.0 9.0 0.00 0.10 0.10 65 1022.2
20200807175717 79 32 5.0 10.0 0.00 0.10 0.10 65 1022.2
20200807175218 79 355 5.0 10.0 0.00 0.10 0.10 64 1022.1
20200807174718 79 13 3.0 8.0 0.00 0.10 0.10 64 1022.1
20200807174217 79 31 3.0 8.0 0.00 0.10 0.10 65 1022.1
20200807173718 79 27 3.0 9.0 0.00 0.10 0.10 65 1022.2
20200807173217 79 5 6.0 10.0 0.00 0.10 0.10 64 1022.2
20200807172717 79 15 6.0 10.0 0.00 0.10 0.10 64 1022.3
20200807172218 79 47 4.0 9.0 0.00 0.10 0.10 64 1022.3
20200807171719 79 61 5.0 10.0 0.00 0.10 0.10 63 1022.3
20200807171218 79 10 3.0 10.0 0.00 0.10 0.10 63 1022.3
20200807170718 78 34 3.0 10.0 0.00 0.10 0.10 63 1022.3
20200807170217 78 42 4.0 10.0 0.00 0.10 0.10 62 1022.4
20200807165717 79 38 5.0 10.0 0.00 0.10 0.10 60 1022.4
20200807165217 79 41 2.0 10.0 0.00 0.10 0.10 61 1022.4
20200807164717 79 60 3.0 10.0 0.00 0.10 0.10 61 1022.1
20200807164217 78 111 5.0 12.0 0.00 0.10 0.10 61 1022.0
20200807163717 78 21 4.0 12.0 0.00 0.10 0.10 61 1022.1
20200807163217 78 40 6.0 12.0 0.00 0.10 0.10 62 1022.1
20200807162718 78 58 6.0 12.0 0.00 0.10 0.10 63 1022.2
20200807162217 78 46 6.0 12.0 0.00 0.10 0.10 62 1022.3
20200807161717 78 37 5.0 10.0 0.00 0.10 0.10 63 1022.4
20200807161217 77 17 5.0 12.0 0.00 0.10 0.10 63 1022.5
20200807160719 77 19 7.0 12.0 0.00 0.10 0.10 64 1022.4
20200807160217 76 17 7.0 12.0 0.00 0.10 0.10 67 1022.5
20200807155718 76 26 6.0 9.0 0.00 0.10 0.10 67 1022.6
20200807155218 76 33 5.0 13.0 0.00 0.10 0.10 69 1022.6
20200807154717 76 38 7.0 13.0 0.00 0.10 0.10 69 1022.7
20200807154217 75 54 3.0 13.0 0.00 0.10 0.10 72 1022.7
20200807153717 75 49 8.0 13.0 0.00 0.10 0.10 72 1022.7
20200807153218 75 26 6.0 12.0 0.00 0.10 0.10 72 1022.8
20200807152717 75 34 5.0 12.0 0.00 0.10 0.10 72 1022.8
20200807152217 74 46 7.0 12.0 0.00 0.10 0.10 72 1022.8
20200807151717 74 46 5.0 12.0 0.00 0.10 0.10 73 1022.9
20200807151217 74 37 7.0 12.0 0.00 0.10 0.10 73 1023.0
20200807150718 74 15 5.0 10.0 0.00 0.10 0.10 74 1023.1
20200807150217 74 9 3.0 9.0 0.00 0.10 0.10 75 1023.2
20200807145718 74 16 6.0 9.0 0.00 0.10 0.10 75 1023.2
20200807145218 74 17 6.0 9.0 0.00 0.10 0.10 77 1023.2
20200807144717 74 11 5.0 10.0 0.01 0.10 0.10 78 1023.1
20200807144217 73 34 5.0 10.0 0.01 0.10 0.10 79 1023.1
20200807143717 73 21 6.0 9.0 0.01 0.10 0.10 80 1022.9
20200807143217 73 10 5.0 9.0 0.01 0.10 0.10 80 1023.0
20200807142717 73 33 5.0 9.0 0.01 0.10 0.10 81 1023.0
20200807142217 73 39 4.0 10.0 0.01 0.10 0.10 81 1023.0
20200807141716 73 11 6.0 10.0 0.01 0.10 0.10 80 1023.0
20200807141217 73 59 4.0 10.0 0.01 0.10 0.10 81 1023.0
20200807140716 73 24 6.0 10.0 0.01 0.10 0.10 81 1023.2
20200807140217 72 14 3.0 7.0 0.01 0.10 0.10 81 1023.2
20200807135717 72 16 2.0 7.0 0.02 0.10 0.10 81 1023.1
20200807135217 71 19 2.0 7.0 0.03 0.10 0.10 82 1023.2
20200807134717 71 17 3.0 7.0 0.02 0.09 0.09 84 1023.2
20200807134217 71 36 3.0 6.0 0.03 0.09 0.09 84 1023.1
20200807133717 71 37 1.0 3.0 0.03 0.09 0.09 85 1023.1
20200807133217 71 35 0.0 2.0 0.03 0.09 0.09 86 1023.1
20200807132717 70 34 0.0 3.0 0.03 0.09 0.09 86 1023.2
20200807132217 70 35 0.0 3.0 0.03 0.09 0.09 86 1023.3
20200807131716 70 35 0.0 3.0 0.03 0.09 0.09 86 1023.2
20200807131217 70 35 0.0 3.0 0.03 0.09 0.09 86 1023.2
20200807130717 70 35 1.0 8.0 0.03 0.09 0.09 85 1023.2
20200807130219 70 35 2.0 8.0 0.03 0.09 0.09 85 1023.3
20200807125717 71 39 3.0 8.0 0.02 0.08 0.08 84 1023.3
20200807125217 71 41 4.0 10.0 0.01 0.07 0.07 84 1023.2
20200807124717 71 19 5.0 10.0 0.01 0.07 0.07 83 1023.3
20200807124216 71 24 3.0 8.0 0.00 0.06 0.06 83 1023.3
20200807123717 71 10 4.0 8.0 0.00 0.06 0.06 83 1023.2
20200807123216 71 9 5.0 8.0 0.01 0.06 0.06 83 1023.2
20200807122716 71 36 3.0 6.0 0.01 0.06 0.06 82 1023.2
20200807122216 71 9 2.0 7.0 0.01 0.06 0.06 83 1023.7
20200807121717 71 11 4.0 8.0 0.01 0.06 0.06 82 1023.4
20200807121216 71 5 4.0 9.0 0.01 0.06 0.06 82 1023.4
20200807120717 70 12 4.0 9.0 0.01 0.06 0.06 82 1023.3
20200807120217 70 9 3.0 6.0 0.01 0.06 0.06 83 1023.2
20200807115717 70 11 3.0 6.0 0.01 0.06 0.06 83 1023.1
20200807115216 70 0 2.0 5.0 0.01 0.06 0.06 83 1023.0
20200807114717 70 0 3.0 5.0 0.01 0.06 0.06 83 1022.8